Location: Colonia Mina de C?rbuni
(46.1667°N, 22.7167°E)
Time: 21:58:44
(UTC+00:00)

Tiros 1 - Pass Details

Date: 20 April 2024
Orbit: 624 x 657 km, 48.4° (Epoch: 20 May)

Event Time Altitude Azimuth Distance (km) Brightness Sun altitude
Rises 21:09:37 0° 198° (SSW) 2,929 - -29.3°
Reaches altitude 10° 21:12:34 10° 180° (S) 2,017 - -29.5°
Maximum altitude 21:15:41 18° 137° (SE) 1,557 - -29.7°
Drops below altitude 10° 21:18:47 10° 95° (E) 2,011 - -29.9°
Sets 21:21:42 0° 76° (ENE) 2,917 - -30.0°
